DMC3-FM2

Last updated on Wed Aug 19 2026 00:02:51 GMT+0000 (Coordinated Universal Time)

1 40716U 15032B 26230.59014376 .00000740 00000+0 90965-4 0 9990 2 40716 97.6421 94.9089 0005112 200.0284 160.0732 14.85804374599177
UTC large
Height (km)
Speed (km/s)
/
Latitude / Longitude
Inclination (degrees)
Orbital Period (minutes)
Azimuth
Elevation
Range (km)
Doppler Factor

Next 0 passes for location: London (51.5072 / 0.1276)

No passes found over London.
DMC3-FM2